Weather History for KBKD - March, 2013

Change the Weather History Date:

Friday, March 8, 2013

  Actual Average (KABI) Record (KABI)
Temperature  
Mean Temperature 62 °F 54 °F  
Max Temperature 65 °F 66 °F 93 °F (1918)
Min Temperature 59 °F 42 °F 17 °F (1996)
Degree Days  
Heating Degree Days 3 11  
Month to date heating degree days 99  
Since 1 July heating degree days 2232  
Cooling Degree Days 0 1  
Month to date cooling degree days 3  
Year to date cooling degree days 8  
Growing Degree Days 12 (Base 50)    
Moisture  
Dew Point 54 °F    
Average Humidity 77    
Maximum Humidity 84    
Minimum Humidity 59    
Precipitation  
Precipitation 0.00 in 0.06 in 0.79 in (2001)
Month to date precipitation 0.46  
Year to date precipitation 2.84  
Sea Level Pressure  
Sea Level Pressure 30.01 in    
Wind  
Wind Speed 14 mph (SSE)    
Max Wind Speed 22 mph    
Max Gust Speed 30 mph    
Visibility 10 miles    
Events      
T = Trace of Precipitation, MM = Missing Value Source: NWS Daily Summary

Daily Weather History Graph

Daily Weather History Graph

Search for Another Location

Airport or City:

Trip Planner

Search our weather history database for the weather conditions in past years. The results will help you decide how hot, cold, wet, or windy it might be!

Date:

Astronomy

Mar. 08, 2013 Rise Set
Actual Time 6:54 AM CST 6:38 PM CST
Civil Twilight 6:29 AM CST 7:03 PM CST
Nautical Twilight 6:01 AM CST 7:31 PM CST
Astronomical Twilight 5:32 AM CST 8:00 PM CST
Moon 4:30 AM CST (3/8) 3:43 PM CST (3/8)
Length of Visible Light 12h 33m
Length of Day
11h 44m
Waning Crescent, 11% of the Moon is Illuminated
Mar 8
Waning Crescent
Mar 11
New
Mar 19
First Quarter
Mar 27
Full
Apr 2
Last Quarter

Hourly Weather History & Observations

Time (CST) Temp. Dew Point Humidity Pressure Visibility Wind Dir Wind Speed Gust Speed Precip Events Conditions
12:15 AM 59.5 °F 45.3 °F 59% 30.05 in 10.0 mi SSE 11.5 mph - N/A   Clear
12:35 AM 59.7 °F 46.2 °F 61% 30.05 in 10.0 mi SSE 11.5 mph 17.3 mph N/A   Clear
12:55 AM 59.5 °F 47.1 °F 63% 30.05 in 10.0 mi SSE 12.7 mph 18.4 mph N/A   Clear
1:15 AM 59.5 °F 48.2 °F 66% 30.04 in 10.0 mi SSE 12.7 mph - N/A   Clear
1:35 AM 60.1 °F 49.6 °F 68% 30.04 in 10.0 mi SSE 15.0 mph - N/A   Clear
1:55 AM 59.7 °F 50.0 °F 70% 30.04 in 10.0 mi SSE 13.8 mph - N/A   Clear
2:15 AM 59.4 °F 50.0 °F 71% 30.04 in 10.0 mi SSE 10.4 mph - N/A   Scattered Clouds
2:35 AM 59.2 °F 50.4 °F 73% 30.04 in 10.0 mi SSE 8.1 mph - N/A   Overcast
2:55 AM 59.0 °F 50.7 °F 74% 30.03 in 10.0 mi SE 9.2 mph - N/A   Overcast
3:15 AM 59.0 °F 51.1 °F 75% 30.01 in 10.0 mi SE 9.2 mph - N/A   Mostly Cloudy
3:35 AM 59.9 °F 51.6 °F 74% 30.02 in 10.0 mi SSE 11.5 mph 17.3 mph N/A   Overcast
3:55 AM 60.4 °F 51.8 °F 73% 30.02 in 10.0 mi SSE 12.7 mph 19.6 mph N/A   Overcast
4:15 AM 60.8 °F 52.2 °F 73% 30.02 in 10.0 mi SSE 11.5 mph - N/A   Overcast
4:35 AM 61.0 °F 52.7 °F 74% 30.02 in 10.0 mi SSE 10.4 mph - N/A   Overcast
4:55 AM 61.3 °F 53.4 °F 75% 30.02 in 10.0 mi SSE 10.4 mph - N/A   Overcast
5:15 AM 61.0 °F 54.0 °F 78% 30.03 in 10.0 mi South 11.5 mph 17.3 mph N/A   Overcast
5:35 AM 60.8 °F 54.1 °F 79% 30.03 in 10.0 mi SSE 13.8 mph 18.4 mph N/A   Overcast
5:55 AM 60.8 °F 54.3 °F 79% 30.04 in 10.0 mi SSE 12.7 mph 20.7 mph N/A   Overcast
6:15 AM 60.8 °F 54.5 °F 80% 30.05 in 10.0 mi SSE 15.0 mph - N/A   Overcast
6:35 AM 60.8 °F 54.5 °F 80% 30.05 in 10.0 mi SSE 11.5 mph 20.7 mph N/A   Overcast
6:55 AM 60.8 °F 54.5 °F 80% 30.06 in 10.0 mi SSE 11.5 mph 16.1 mph N/A   Overcast
7:15 AM 60.4 °F 54.1 °F 80% 30.07 in 10.0 mi SSE 13.8 mph 18.4 mph N/A   Overcast
7:35 AM 60.4 °F 54.5 °F 81% 30.08 in 10.0 mi SSE 9.2 mph - N/A   Overcast
7:55 AM 60.4 °F 54.5 °F 81% 30.08 in 10.0 mi SSE 10.4 mph - N/A   Overcast
8:15 AM 60.3 °F 54.3 °F 81% 30.09 in 10.0 mi SSE 10.4 mph - N/A   Overcast
8:35 AM 59.9 °F 54.5 °F 82% 30.09 in 10.0 mi SSE 10.4 mph - N/A   Overcast
8:55 AM 60.1 °F 54.7 °F 82% 30.08 in 10.0 mi SE 17.3 mph 23.0 mph N/A   Overcast
9:15 AM 59.9 °F 54.7 °F 83% 30.08 in 10.0 mi SE 12.7 mph - N/A   Overcast
9:35 AM 60.3 °F 54.7 °F 82% 30.08 in 10.0 mi SSE 17.3 mph 20.7 mph N/A   Overcast
9:55 AM 61.0 °F 54.9 °F 80% 30.08 in 10.0 mi SE 13.8 mph 20.7 mph N/A   Overcast
10:15 AM 61.0 °F 53.6 °F 77% 30.07 in 10.0 mi SE 17.3 mph 24.2 mph N/A   Overcast
10:35 AM 60.4 °F 53.6 °F 78% 30.07 in 10.0 mi SE 16.1 mph 23.0 mph N/A   Overcast
10:55 AM 59.9 °F 53.4 °F 79% 30.07 in 10.0 mi SE 13.8 mph 19.6 mph N/A   Overcast
11:15 AM 59.9 °F 53.6 °F 80% 30.07 in 10.0 mi SE 16.1 mph 20.7 mph N/A   Overcast
11:35 AM 60.4 °F 54.0 °F 79% 30.06 in 10.0 mi SSE 18.4 mph 25.3 mph N/A   Overcast
11:55 AM 61.3 °F 54.1 °F 77% 30.05 in 10.0 mi SSE 18.4 mph 28.8 mph N/A   Overcast
12:15 PM 62.6 °F 54.1 °F 74% 30.05 in 10.0 mi SSE 16.1 mph 24.2 mph N/A   Overcast
12:35 PM 62.8 °F 54.5 °F 74% 30.05 in 10.0 mi SSE 16.1 mph 23.0 mph N/A   Overcast
12:55 PM 62.8 °F 54.3 °F 74% 30.04 in 10.0 mi SSE 18.4 mph 26.5 mph N/A   Overcast
1:15 PM 62.6 °F 54.3 °F 74% 30.03 in 10.0 mi SSE 17.3 mph 23.0 mph N/A   Overcast
1:35 PM 62.6 °F 54.5 °F 75% 30.02 in 10.0 mi SSE 21.9 mph 26.5 mph N/A   Overcast
1:55 PM 62.8 °F 54.5 °F 74% 30.00 in 10.0 mi SSE 18.4 mph 27.6 mph N/A   Overcast
2:15 PM 62.6 °F 54.5 °F 75% 29.98 in 10.0 mi SE 13.8 mph 23.0 mph N/A   Overcast
2:35 PM 62.4 °F 54.5 °F 75% 29.99 in 10.0 mi SSE 20.7 mph 28.8 mph N/A   Overcast
2:55 PM 61.9 °F 54.5 °F 77% 29.98 in 10.0 mi SSE 20.7 mph 27.6 mph N/A   Overcast
3:15 PM 61.7 °F 54.9 °F 78% 29.97 in 10.0 mi SSE 20.7 mph 28.8 mph N/A   Overcast
3:35 PM 62.1 °F 55.0 °F 78% 29.97 in 10.0 mi SSE 19.6 mph 26.5 mph N/A   Overcast
3:55 PM 61.9 °F 55.4 °F 79% 29.96 in 10.0 mi SSE 12.7 mph 19.6 mph N/A   Overcast
4:15 PM 62.1 °F 55.4 °F 79% 29.96 in 10.0 mi SSE 16.1 mph 20.7 mph N/A   Overcast
4:35 PM 62.2 °F 55.6 °F 79% 29.96 in 10.0 mi SSE 11.5 mph 20.7 mph N/A   Overcast
4:55 PM 62.6 °F 55.8 °F 78% 29.96 in 10.0 mi SSE 17.3 mph 26.5 mph N/A   Overcast
5:15 PM 62.8 °F 55.8 °F 78% 29.96 in 10.0 mi SSE 15.0 mph 25.3 mph N/A   Overcast
5:35 PM 62.8 °F 56.3 °F 79% 29.95 in 10.0 mi SSE 13.8 mph 23.0 mph N/A   Overcast
5:55 PM 62.8 °F 56.3 °F 79% 29.95 in 10.0 mi SSE 16.1 mph 21.9 mph N/A   Overcast
6:15 PM 62.8 °F 56.3 °F 79% 29.95 in 10.0 mi SSE 15.0 mph 23.0 mph N/A   Overcast
6:35 PM 62.8 °F 56.5 °F 80% 29.95 in 10.0 mi SSE 16.1 mph 24.2 mph N/A   Overcast
6:55 PM 62.8 °F 56.8 °F 81% 29.95 in 10.0 mi SSE 18.4 mph 24.2 mph N/A   Overcast
7:15 PM 63.0 °F 57.2 °F 81% 29.95 in 10.0 mi SSE 20.7 mph 28.8 mph N/A   Overcast
7:35 PM 63.0 °F 57.4 °F 82% 29.94 in 10.0 mi SSE 15.0 mph 21.9 mph N/A   Overcast
7:55 PM 63.0 °F 57.6 °F 82% 29.95 in 10.0 mi SSE 19.6 mph 26.5 mph N/A   Overcast
8:15 PM 63.0 °F 57.7 °F 83% 29.95 in 10.0 mi SSE 15.0 mph 26.5 mph N/A   Overcast
8:35 PM 63.5 °F 58.1 °F 83% 29.95 in 10.0 mi SSE 15.0 mph 25.3 mph N/A   Overcast
8:55 PM 63.5 °F 58.5 °F 84% 29.95 in 10.0 mi SSE 15.0 mph 26.5 mph N/A   Overcast
9:15 PM 63.9 °F 59.0 °F 84% 29.93 in 10.0 mi SSE 18.4 mph 24.2 mph N/A   Overcast
9:35 PM 64.4 °F 59.0 °F 83% 29.93 in 10.0 mi South 16.1 mph 25.3 mph N/A   Overcast
9:55 PM 64.9 °F 58.5 °F 79% 29.93 in 10.0 mi South 19.6 mph 26.5 mph N/A   Overcast
10:15 PM 65.3 °F 58.3 °F 78% 29.92 in 10.0 mi SSE 16.1 mph 27.6 mph N/A   Overcast
10:35 PM 65.3 °F 58.1 °F 77% 29.91 in 10.0 mi SSE 18.4 mph 27.6 mph N/A   Overcast
10:55 PM 65.5 °F 58.1 °F 77% 29.91 in 10.0 mi South 20.7 mph 27.6 mph N/A   Overcast
11:15 PM 65.8 °F 57.9 °F 76% 29.90 in 10.0 mi South 21.9 mph 29.9 mph N/A   Overcast
11:35 PM 65.7 °F 57.6 °F 75% 29.88 in 10.0 mi South 20.7 mph 27.6 mph N/A   Overcast
11:55 PM 65.7 °F 57.4 °F 75% 29.88 in 10.0 mi South 18.4 mph 26.5 mph N/A   Overcast